Location: Graswijk
(52.9667°N, 6.5500°E)
Time: 13:20:44
(UTC+00:00)

Cosmos 1536 - Pass Details

Date: 15 May 2026
Orbit: 482 x 500 km, 82.5° (Epoch: 10 June)

Event Time Altitude Azimuth Distance (km) Brightness Sun altitude
Rises 21:29:54 0° 353° (N) 2,571 7.6 -13.4°
Reaches altitude 10° 21:32:05 10° 360° (N) 1,688 6.3 -13.6°
Maximum altitude 21:35:38 45° 74° (ENE) 684 3.2 -13.8°
Enters shadow 21:37:28 24° 134° (SE) 1,047 3.7 -14.0°
